Regional Weather Roundup
Issued by NWS Sioux Falls, SD

Home | Current Version | Previous Version | Text Only | Print | Product List | Glossary On
Versions: 1 2 3 4 5 6 7 8 9 10 11 12 13 14 15 16 17 18 19 20 21 22 23 24 25 26 27 28 29 30 31 32 33 34 35 36 37 38 39 40 41 42 43 44 45 46 47 48 49 50
000
ASUS43 KFSD 241102
RWRFSD

WEATHER ROUNDUP FOR SE SOUTH DAKOTA/SW MINNESOTA/NW IOWA
NATIONAL WEATHER SERVICE SIOUX FALLS SD
600 AM CDT MON JUL 24 2017

NOTE: "FAIR" INDICATES FEW OR NO CLOUDS BELOW 12,000 FEET WITH NO
SIGNIFICANT WEATHER AND OR OBSTRUCTIONS TO VISIBILITY.


SDZ038>040-050-052>070-241200-
SOUTHEAST SOUTH DAKOTA

CITY           SKY/WX    TMP DP  RH WIND       PRES   REMARKS
BROOKINGS      CLEAR     57  56  96 CALM      30.04S
CHAMBERLAIN    PTCLDY    63  62  96 E9        29.98S
HURON          CLOUDY    60  59  96 SE8       29.99F
MADISON        FAIR      55  55 100 SW3       30.05S
MITCHELL       CLEAR     60  58  92 SE6       30.01F
SIOUX FALLS    PTCLDY    56  56 100 CALM      30.04R
WINNER         FAIR      70  57  63 S15       29.98S
YANKTON        CLEAR     59  59 100 CALM      30.03R FOG
$$

MNZ071-072-080-081-089-090-097-098-241200-
SOUTHWEST MINNESOTA

CITY           SKY/WX    TMP DP  RH WIND       PRES   REMARKS
FAIRMONT       CLEAR     57  56  96 CALM      30.05R FOG
JACKSON        CLEAR     55  55 100 CALM      30.07R FOG
MARSHALL       CLEAR     57  56  96 CALM      30.05R
MONTEVIDEO     CLEAR     55  55 100 S5        30.05R
PIPESTONE      CLEAR     59  57  94 NE5       30.05S
REDWOOD FALLS  CLEAR     58  55  90 SE3       30.04R
WINDOM         CLEAR     55  54  94 CALM      30.05S
WORTHINGTON    CLEAR     54  52  93 CALM      30.07R
$$

IAZ001>003-012>014-020>022-031-032-NEZ013-014-SDZ071-241200-
NORTHWEST IOWA

CITY           SKY/WX    TMP DP  RH WIND       PRES   REMARKS
CHEROKEE       CLEAR     56  56 100 CALM      30.05R
DENISON        CLEAR     57  57 100 CALM      30.06R
ESTHERVILLE    CLEAR     53  53 100 CALM      30.05R FOG
ORANGE CITY    CLEAR     61  57  88 CALM      30.06R
SHELDON        CLEAR     52  52 100 CALM      30.04R
SIOUX CITY     CLEAR     57  56  96 S3        30.04R FOG
SPENCER        CLEAR     54  53  97 CALM      30.06R
STORM LAKE     CLEAR     57  57 100 E5        30.05R
$$

ABBREVIATIONS USED IN REMARKS
   TC - TEMPERATURE IN CELSIUS
  WCI - WIND CHILL INDEX
   HX - HEAT INDEX
  VSB - VISIBILITY





USA.gov is the U.S. government's official web portal to all federal, state and local government web resources and services.